FW9412 Weather Reports


Display with metric or nautical units.
time (UTC)temp
F
wind
direction
speed
MPH
gust
MPH
rain 1hr
in
rain 24hr
in
rain mn
in
humidity
%
barometer
mb
20260502204019 44 226 3.0 3.0 0.00 0.00 0.00 64 1012.8
20260502203515 43 260 1.0 1.0 0.00 0.00 0.00 64 1012.6
20260502203012 44 176 0.0 0.0 0.00 0.00 0.00 60 1012.7
20260502202508 44 144 0.0 1.0 0.00 0.00 0.00 64 1012.7
20260502202007 44 250 3.0 3.0 0.00 0.00 0.00 64 1012.4
20260502201503 43 173 2.0 2.0 0.00 0.00 0.00 63 1012.7
20260502200959 43 229 3.0 3.0 0.00 0.00 0.00 64 1012.9
20260502200455 43 227 3.0 3.0 0.00 0.00 0.00 64 1012.9
20260502195953 43 207 2.0 2.0 0.00 0.00 0.00 65 1012.8
20260502195450 43 199 3.0 3.0 0.00 0.00 0.00 66 1012.8
20260502194946 43 222 3.0 3.0 0.00 0.00 0.00 68 1012.8
20260502194443 43 181 3.0 3.0 0.00 0.00 0.00 68 1012.9
20260502193939 43 188 3.0 3.0 0.00 0.00 0.00 67 1013.2
20260502193437 43 203 2.0 2.0 0.00 0.00 0.00 66 1013.2
20260502192932 43 233 3.0 3.0 0.00 0.00 0.00 66 1013.2
20260502192429 43 206 1.0 1.0 0.00 0.00 0.00 66 1013.0
20260502191926 42 208 2.0 2.0 0.00 0.00 0.00 67 1013.2
20260502191424 43 260 4.0 5.0 0.00 0.00 0.00 66 1013.1
20260502190921 43 271 5.0 5.0 0.00 0.00 0.00 66 1013.1
20260502190418 43 186 1.0 1.0 0.00 0.00 0.00 66 1013.4
20260502185914 43 198 1.0 1.0 0.00 0.00 0.00 68 1013.2
20260502185410 43 234 1.0 1.0 0.00 0.00 0.00 67 1013.3
20260502184907 42 123 0.0 1.0 0.00 0.00 0.00 72 1013.5
20260502184403 42 193 1.0 1.0 0.00 0.00 0.00 68 1013.3
20260502183859 42 166 2.0 2.0 0.00 0.00 0.00 69 1013.3
20260502183355 43 215 2.0 2.0 0.00 0.00 0.00 68 1013.3
20260502182851 43 165 2.0 2.0 0.00 0.00 0.00 70 1013.2
20260502182347 42 166 0.0 0.0 0.00 0.00 0.00 68 1013.0
20260502181843 43 181 1.0 1.0 0.00 0.00 0.00 68 1013.2
20260502181342 43 112 0.0 1.0 0.00 0.00 0.00 67 1013.0
20260502180839 43 172 1.0 1.0 0.00 0.00 0.00 68 1013.2
20260502180336 44 80 3.0 5.0 0.00 0.00 0.00 67 1013.0
20260502170255 43 190 2.0 2.0 0.00 0.00 0.00 61 1013.0
20260502164243 43 243 4.0 5.0 0.00 0.00 0.00 60 1013.1
20260502163738 44 225 2.0 2.0 0.00 0.00 0.00 58 1012.9
20260502163235 44 247 3.0 3.0 0.00 0.00 0.00 58 1013.2
20260502162732 45 277 4.0 5.0 0.00 0.00 0.00 61 1013.2
20260502162228 44 200 2.0 2.0 0.00 0.00 0.00 61 1013.1
20260502161725 43 255 7.0 7.0 0.00 0.00 0.00 59 1013.0
20260502161222 44 247 4.0 6.0 0.00 0.00 0.00 58 1013.0
20260502160720 43 243 4.0 5.0 0.00 0.00 0.00 59 1012.9
20260502160219 43 211 3.0 3.0 0.00 0.00 0.00 61 1013.1
20260502152143 42 238 4.0 6.0 0.00 0.00 0.00 66 1013.4
20260502151641 42 227 3.0 3.0 0.00 0.00 0.00 67 1013.1
20260502151137 41 249 5.0 6.0 0.00 0.00 0.00 66 1013.5
20260502150635 41 243 4.0 5.0 0.00 0.00 0.00 72 1013.2
20260502150131 41 246 3.0 3.0 0.00 0.00 0.00 71 1013.3
20260502130520 37 260 5.0 6.0 0.00 0.00 0.00 86 1014.3
20260502123503 36 215 3.0 3.0 0.00 0.00 0.00 87 1013.8
20260502122959 36 248 5.0 6.0 0.00 0.00 0.00 88 1014.1
20260502122455 37 183 2.0 3.0 0.00 0.00 0.00 89 1014.1
20260502121954 37 220 4.0 5.0 0.00 0.00 0.00 88 1014.1
20260502121451 36 176 3.0 3.0 0.00 0.00 0.00 89 1014.1
20260502120948 36 224 4.0 5.0 0.00 0.00 0.00 90 1013.7
20260502120444 36 244 3.0 3.0 0.00 0.00 0.00 90 1013.9
20260502115439 36 245 3.0 3.0 0.00 0.00 0.00 91 1013.9
20260502114934 36 244 4.0 5.0 0.00 0.00 0.00 91 1013.7
20260502114432 36 249 3.0 5.0 0.00 0.00 0.00 91 1013.8
20260502113929 36 255 3.0 5.0 0.00 0.00 0.00 91 1013.9
20260502113426 36 250 5.0 6.0 0.00 0.00 0.00 92 1013.7
20260502112925 36 194 2.0 2.0 0.00 0.00 0.00 92 1013.9
20260502112422 37 246 5.0 6.0 0.00 0.00 0.00 93 1013.6
20260502111920 37 192 3.0 3.0 0.00 0.00 0.00 93 1013.6
20260502111416 37 233 2.0 2.0 0.00 0.00 0.00 93 1013.6
20260502110914 37 247 3.0 3.0 0.00 0.00 0.00 93 1013.7
20260502110412 37 185 2.0 2.0 0.00 0.00 0.00 93 1013.4
20260502105909 37 237 2.0 3.0 0.00 0.00 0.00 93 1013.2
20260502105406 37 198 3.0 3.0 0.00 0.00 0.00 93 1013.2
20260502104904 37 183 2.0 2.0 0.00 0.00 0.00 93 1013.2
20260502104401 37 213 3.0 3.0 0.00 0.00 0.00 93 1013.0
20260502103858 37 199 3.0 3.0 0.00 0.00 0.00 93 1013.1
20260502103355 37 219 3.0 3.0 0.00 0.00 0.00 94 1013.1
20260502102852 37 243 4.0 5.0 0.00 0.00 0.00 93 1013.1
20260502102349 37 192 1.0 1.0 0.00 0.00 0.00 93 1012.9
20260502101846 37 218 3.0 3.0 0.00 0.00 0.00 93 1013.2
20260502101344 37 243 3.0 3.0 0.00 0.00 0.00 94 1013.0
20260502100843 37 220 2.0 2.0 0.00 0.00 0.00 94 1012.8
20260502100342 37 217 2.0 2.0 0.00 0.00 0.00 94 1012.6
20260502091315 37 236 2.0 2.0 0.00 0.00 0.00 96 1012.6
20260502090813 38 212 2.0 2.0 0.00 0.00 0.00 96 1012.3
20260502090309 38 197 1.0 2.0 0.00 0.00 0.00 96 1012.3
20260502071205 38 183 1.0 1.0 0.00 0.00 0.00 96 1012.0
20260502070703 38 195 2.0 2.0 0.00 0.00 0.00 96 1011.8
20260502070200 38 185 1.0 2.0 0.00 0.00 0.00 96 1012.0
20260502065659 38 214 2.0 2.0 0.00 0.00 0.00 96 1012.1
20260502065155 37 187 1.0 2.0 0.00 0.00 0.00 96 1012.3
20260502064654 37 186 1.0 2.0 0.00 0.00 0.00 96 1012.2
20260502064151 37 180 1.0 1.0 0.00 0.00 0.00 96 1012.0
20260502063649 37 180 1.0 1.0 0.00 0.00 0.00 96 1012.1
20260502063147 37 164 0.0 0.0 0.00 0.00 0.00 96 1012.3
20260502062643 37 170 1.0 1.0 0.00 0.00 0.00 96 1012.0
20260502062141 37 162 1.0 1.0 0.00 0.00 0.00 96 1012.0
20260502061639 38 156 0.0 0.0 0.00 0.00 0.00 96 1011.8
20260502061136 38 155 0.0 0.0 0.00 0.00 0.00 96 1011.9
20260502060631 38 155 0.0 0.0 0.00 0.00 0.00 96 1011.9
20260502060128 38 155 0.0 0.0 0.00 0.00 0.00 96 1011.7
20260502055626 38 155 0.0 0.0 0.00 0.00 0.00 96 1011.9
20260502055123 38 156 0.0 0.0 0.00 0.00 0.00 96 1012.0
20260502054622 38 156 0.0 0.0 0.00 0.00 0.00 96 1012.1
20260502054119 38 157 0.0 0.0 0.00 0.00 0.00 96 1012.2
20260502053616 38 156 0.0 0.0 0.00 0.00 0.00 96 1012.3
20260502053113 38 156 0.0 0.0 0.00 0.00 0.00 96 1012.5
20260502052612 38 157 0.0 0.0 0.00 0.00 0.00 95 1012.6
20260502052110 38 158 0.0 0.0 0.00 0.00 0.00 96 1012.4
20260502051608 38 166 1.0 1.0 0.00 0.00 0.00 95 1012.5
20260502051105 38 157 0.0 0.0 0.00 0.00 0.00 95 1012.4
20260502050601 38 151 0.0 0.0 0.00 0.00 0.00 95 1012.3
20260502050058 38 150 0.0 0.0 0.00 0.00 0.00 95 1012.3
20260502045554 38 150 0.0 0.0 0.00 0.00 0.00 95 1012.3
20260502045052 38 149 0.0 0.0 0.00 0.00 0.00 95 1012.3
20260502044548 38 150 0.0 0.0 0.00 0.00 0.00 95 1012.4
20260502044045 38 147 0.0 0.0 0.00 0.00 0.00 95 1012.3
20260502043543 38 148 0.0 0.0 0.00 0.00 0.00 95 1012.4
20260502043039 38 148 0.0 0.0 0.00 0.00 0.00 95 1012.6
20260502042533 38 147 0.0 0.0 0.00 0.00 0.00 95 1012.5
20260502042031 38 147 0.0 0.0 0.00 0.00 0.00 95 1012.4
20260502041529 38 147 0.0 0.0 0.00 0.00 0.00 95 1012.7
20260502041026 38 147 0.0 0.0 0.00 0.00 0.00 95 1012.3
20260502040522 38 147 0.0 0.0 0.00 0.00 0.00 95 1012.4
20260502040020 38 148 0.0 0.0 0.00 0.20 0.20 95 1012.5
20260502035515 38 143 0.0 0.0 0.05 0.20 0.20 95 1012.2
20260502035013 38 142 0.0 0.0 0.05 0.20 0.20 95 1012.4
20260502034511 38 142 0.0 0.0 0.00 0.19 0.19 95 1012.4
20260502034009 38 142 0.0 0.0 0.00 0.19 0.19 95 1012.3
20260502033507 38 142 0.0 0.0 0.00 0.19 0.19 95 1012.5
20260502033004 38 142 0.0 0.0 0.00 0.19 0.19 95 1012.4
20260502032500 38 142 0.0 0.0 0.00 0.19 0.19 95 1012.4
20260502031956 38 142 0.0 0.0 0.00 0.19 0.19 95 1012.4
20260502031455 37 141 0.0 0.0 0.07 0.19 0.19 95 1012.2
20260502030953 37 118 1.0 1.0 0.07 0.19 0.19 95 1012.4
20260502030451 38 111 1.0 1.0 0.00 0.18 0.18 95 1012.4
20260502025948 38 139 0.0 0.0 0.00 0.18 0.18 95 1012.2
20260502025445 38 132 0.0 1.0 0.00 0.18 0.18 95 1012.2
20260502024943 38 135 0.0 0.0 0.00 0.18 0.18 95 1012.1
20260502024441 38 103 1.0 2.0 0.00 0.18 0.18 94 1012.3
20260502023939 38 111 1.0 1.0 0.05 0.18 0.18 94 1012.1
20260502023436 38 136 0.0 0.0 0.05 0.18 0.18 94 1012.2
20260502022933 38 133 0.0 0.0 0.00 0.17 0.17 94 1012.3
20260502022430 38 138 0.0 0.0 0.07 0.17 0.17 94 1012.2
20260502021927 38 132 0.0 0.0 0.07 0.17 0.17 94 1012.4
20260502021424 38 139 0.0 0.0 0.05 0.16 0.16 94 1012.2
20260502020921 38 140 0.0 0.0 0.05 0.16 0.16 94 1012.2
20260502020419 38 126 0.0 0.0 0.07 0.15 0.15 94 1012.1
20260502015915 38 115 1.0 2.0 0.07 0.15 0.15 94 1012.3
20260502015413 38 120 1.0 2.0 0.05 0.14 0.14 94 1012.1
20260502014910 38 154 0.0 0.0 0.05 0.14 0.14 94 1012.0
20260502014407 38 150 0.0 0.0 0.07 0.13 0.13 94 1012.1
20260502013903 38 132 0.0 0.0 0.07 0.13 0.13 93 1012.2
20260502013358 38 140 0.0 0.0 0.07 0.12 0.12 93 1012.1
20260502012855 38 135 0.0 0.0 0.07 0.12 0.12 93 1012.2
20260502012354 38 126 0.0 0.0 0.00 0.11 0.11 93 1012.2
20260502011850 38 137 0.0 0.0 0.05 0.11 0.11 93 1012.1
20260502011346 38 140 0.0 0.0 0.05 0.11 0.11 93 1011.9
20260502010843 38 132 1.0 1.0 0.00 0.10 0.10 93 1011.8
20260502010340 38 131 0.0 0.0 0.00 0.10 0.10 93 1012.0
20260502005837 38 135 0.0 0.0 0.07 0.10 0.10 93 1012.1
20260502005335 38 145 0.0 0.0 0.07 0.10 0.10 93 1012.0
20260502004832 38 133 0.0 1.0 0.00 0.09 0.09 93 1011.7
20260502004328 38 124 1.0 1.0 0.00 0.09 0.09 93 1011.7
20260502003826 38 124 1.0 1.0 0.05 0.09 0.09 93 1011.8
20260502003323 38 146 0.0 0.0 0.05 0.09 0.09 92 1011.7
20260502002819 38 141 0.0 0.0 0.00 0.08 0.08 92 1011.8
20260502002316 39 137 0.0 0.0 0.07 0.08 0.08 92 1011.6
20260502001813 39 144 0.0 0.0 0.07 0.08 0.08 92 1011.4
20260502001311 39 147 0.0 0.0 0.00 0.07 0.07 92 1011.7
20260502000809 39 204 1.0 1.0 0.05 0.07 0.07 92 1011.6
20260502000307 39 148 0.0 0.0 0.00 0.06 0.06 92 1011.4
20260501235802 39 157 0.0 0.0 0.07 0.06 0.06 92 1011.5
20260501235258 39 154 0.0 0.0 0.07 0.06 0.06 92 1011.5
20260501234754 40 148 0.0 0.0 0.00 0.05 0.05 92 1011.4
20260501234251 40 146 0.0 0.0 0.00 0.05 0.05 92 1011.2
20260501233750 40 151 0.0 0.0 0.05 0.05 0.05 91 1011.2
20260501233247 40 146 0.0 0.0 0.05 0.05 0.05 91 1011.3
20260501232742 40 160 0.0 1.0 0.07 0.04 0.04 91 1011.3
20260501232239 41 149 0.0 0.0 0.12 0.04 0.04 91 1011.4
20260501231737 41 145 0.0 0.0 0.05 0.03 0.03 90 1011.3
20260501231235 40 158 0.0 0.0 0.07 0.02 0.02 90 1011.3
20260501230733 41 163 0.0 0.0 0.07 0.02 0.02 90 1011.3
20260501230231 41 150 0.0 0.0 0.00 0.01 0.01 89 1011.2
20260501225729 41 151 0.0 0.0 0.05 0.01 0.01 89 1011.2
20260501225226 41 156 0.0 0.0 0.05 0.01 0.01 89 1011.1
20260501224721 41 161 0.0 0.0 0.00 0.00 0.00 88 1011.1
20260501224220 42 162 1.0 1.0 0.00 0.00 0.00 88 1011.1
20260501223715 42 174 1.0 1.0 0.00 0.00 0.00 87 1011.3
20260501223212 42 176 1.0 1.0 0.00 0.00 0.00 86 1011.2
20260501222708 43 151 0.0 0.0 0.00 0.00 0.00 84 1011.1
20260501222205 44 122 0.0 0.0 0.00 0.00 0.00 85 1011.2
20260501221702 45 169 1.0 1.0 0.00 0.00 0.00 84 1011.2
20260501221159 45 173 1.0 1.0 0.00 0.00 0.00 83 1011.1
20260501220657 45 178 1.0 2.0 0.00 0.00 0.00 81 1011.1
20260501220154 46 183 1.0 1.0 0.00 0.00 0.00 79 1011.0
20260501215651 46 179 0.0 0.0 0.00 0.00 0.00 78 1010.9
20260501215146 46 181 1.0 1.0 0.00 0.00 0.00 78 1010.9
20260501214641 46 175 0.0 0.0 0.00 0.00 0.00 77 1011.1
20260501214137 46 175 0.0 1.0 0.00 0.00 0.00 76 1010.9
20260501213634 46 181 1.0 1.0 0.00 0.00 0.00 76 1010.8
20260501213130 46 175 0.0 0.0 0.00 0.00 0.00 76 1010.9
20260501212627 46 182 1.0 1.0 0.00 0.00 0.00 74 1010.9
20260501212123 46 192 1.0 2.0 0.00 0.00 0.00 75 1011.0
20260501211620 46 178 1.0 1.0 0.00 0.00 0.00 75 1011.0
20260501211118 46 189 2.0 2.0 0.00 0.00 0.00 75 1011.2
20260501210614 46 183 1.0 1.0 0.00 0.00 0.00 76 1010.9
20260501210111 47 190 2.0 2.0 0.00 0.00 0.00 74 1011.1
20260501205607 47 188 2.0 2.0 0.00 0.00 0.00 74 1010.9
20260501205105 47 189 2.0 2.0 0.00 0.00 0.00 73 1011.0
20260501204602 47 209 2.0 2.0 0.00 0.00 0.00 72 1011.0